• In Czech Republic
  • List of Countries
  • For 7 days
  • Water Temperature
  • Satellite Maps
  • Weather Map
  • Weather Widgets
  • user-avatar
    Login

    Hourly Weather Nikolo-Pustyn

    Today, 16 July, Monday

    Time Temperature Precipitation Wind Pressure Humidity
    00:00 +18°C° 0 mm 2 mps 734 mmHg 95%
    01:00 +18°C° 0 mm 2 mps 734 mmHg 96%
    02:00 +17°C° 0 mm 2 mps 734 mmHg 97%
    03:00 +18°C° 0 mm 2 mps 734 mmHg 96%
    04:00 +18°C° 0 mm 3 mps 734 mmHg 96%
    05:00 +18°C° 0 mm 3 mps 734 mmHg 96%
    06:00 +20°C° 0.1 mm 3 mps 734 mmHg 92%
    07:00 +21°C° 0.1 mm 3 mps 734 mmHg 88%
    08:00 +22°C° 0.1 mm 4 mps 735 mmHg 84%
    09:00 +23°C° 0.8 mm 4 mps 734 mmHg 81%
    10:00 +25°C° 0.8 mm 4 mps 734 mmHg 78%
    11:00 +26°C° 0.8 mm 4 mps 734 mmHg 75%
    12:00 +27°C° 0.4 mm 4 mps 734 mmHg 73%
    13:00 +27°C° 0.4 mm 4 mps 734 mmHg 71%
    14:00 +28°C° 0.4 mm 4 mps 734 mmHg 68%
    15:00 +27°C° 0.4 mm 4 mps 734 mmHg 72%
    16:00 +27°C° 0.4 mm 4 mps 734 mmHg 75%
    17:00 +26°C° 0.4 mm 4 mps 734 mmHg 79%
    18:00 +25°C° 0.3 mm 4 mps 733 mmHg 82%
    19:00 +22°C° 0.3 mm 4 mps 733 mmHg 86%
    20:00 +21°C° 0.3 mm 3 mps 733 mmHg 90%
    21:00 +21°C° 0 mm 3 mps 733 mmHg 90%
    22:00 +20°C° 0 mm 3 mps 733 mmHg 91%
    23:00 +19°C° 0 mm 3 mps 733 mmHg 91%

    Tomorrow, 17 July, Tuesday

    Time Temperature Precipitation Wind Pressure Humidity
    00:00 +19°C° 0 mm 3 mps 733 mmHg 92%
    01:00 +19°C° 0 mm 3 mps 733 mmHg 93%
    02:00 +19°C° 0 mm 3 mps 733 mmHg 93%
    03:00 +19°C° 0 mm 4 mps 733 mmHg 93%
    04:00 +19°C° 0 mm 4 mps 733 mmHg 93%
    05:00 +19°C° 0 mm 4 mps 733 mmHg 92%
    06:00 +20°C° 0 mm 4 mps 733 mmHg 87%
    07:00 +22°C° 0 mm 5 mps 733 mmHg 81%
    08:00 +25°C° 0 mm 5 mps 733 mmHg 75%
    09:00 +26°C° 0 mm 6 mps 732 mmHg 71%
    10:00 +27°C° 0 mm 6 mps 732 mmHg 67%
    11:00 +28°C° 0 mm 6 mps 732 mmHg 62%
    12:00 +28°C° 0.1 mm 6 mps 732 mmHg 63%
    13:00 +28°C° 0.1 mm 6 mps 731 mmHg 64%
    14:00 +28°C° 0.1 mm 6 mps 731 mmHg 65%
    15:00 +27°C° 0.7 mm 6 mps 731 mmHg 71%
    16:00 +26°C° 0.7 mm 5 mps 731 mmHg 78%
    17:00 +25°C° 0.7 mm 5 mps 731 mmHg 84%
    18:00 +23°C° 0.2 mm 4 mps 731 mmHg 86%
    19:00 +22°C° 0.2 mm 4 mps 731 mmHg 89%
    20:00 +21°C° 0.2 mm 4 mps 731 mmHg 91%
    21:00 +21°C° 0.1 mm 4 mps 731 mmHg 92%
    22:00 +21°C° 0.1 mm 4 mps 731 mmHg 93%
    23:00 +20°C° 0.1 mm 4 mps 730 mmHg 95%

    Day after tomorrow, 18 July, Wednesday

    Time Temperature Precipitation Wind Pressure Humidity
    00:00 +20°C° 0.1 mm 4 mps 730 mmHg 96%
    01:00 +20°C° 0.1 mm 4 mps 730 mmHg 96%
    02:00 +19°C° 0.1 mm 4 mps 731 mmHg 97%
    03:00 +19°C° 0 mm 4 mps 730 mmHg 97%
    04:00 +20°C° 0 mm 4 mps 730 mmHg 96%
    05:00 +20°C° 0 mm 4 mps 730 mmHg 96%
    06:00 +20°C° 0 mm 5 mps 730 mmHg 92%
    07:00 +21°C° 0 mm 5 mps 730 mmHg 89%
    08:00 +22°C° 0 mm 5 mps 731 mmHg 86%
    09:00 +23°C° 0 mm 6 mps 730 mmHg 79%
    10:00 +24°C° 0 mm 6 mps 730 mmHg 73%
    11:00 +26°C° 0 mm 6 mps 730 mmHg 66%
    12:00 +26°C° 0.4 mm 6 mps 730 mmHg 69%
    13:00 +26°C° 0.4 mm 6 mps 730 mmHg 73%
    14:00 +26°C° 0.4 mm 6 mps 730 mmHg 76%
    15:00 +25°C° 0.5 mm 5 mps 730 mmHg 80%
    16:00 +23°C° 0.5 mm 5 mps 730 mmHg 84%
    17:00 +22°C° 0.5 mm 5 mps 730 mmHg 88%
    18:00 +21°C° 0.1 mm 4 mps 730 mmHg 90%
    19:00 +20°C° 0.1 mm 4 mps 730 mmHg 91%
    20:00 +20°C° 0.1 mm 4 mps 730 mmHg 93%
    21:00 +19°C° 0 mm 4 mps 730 mmHg 93%
    22:00 +19°C° 0 mm 4 mps 730 mmHg 94%
    23:00 +19°C° 0 mm 4 mps 730 mmHg 95%

    19 July, Thursday

    Time Temperature Precipitation Wind Pressure Humidity
    00:00 +18°C° 0.1 mm 4 mps 730 mmHg 95%
    01:00 +18°C° 0.1 mm 4 mps 730 mmHg 95%
    02:00 +18°C° 0.1 mm 4 mps 730 mmHg 95%
    03:00 +18°C° 0.1 mm 4 mps 730 mmHg 96%
    04:00 +18°C° 0.1 mm 4 mps 730 mmHg 96%
    05:00 +18°C° 0.1 mm 4 mps 730 mmHg 96%
    06:00 +18°C° 0.2 mm 4 mps 730 mmHg 96%
    07:00 +18°C° 0.2 mm 4 mps 730 mmHg 96%
    08:00 +18°C° 0.2 mm 4 mps 730 mmHg 96%
    09:00 +19°C° 0.1 mm 4 mps 730 mmHg 94%
    10:00 +20°C° 0.1 mm 4 mps 730 mmHg 93%
    11:00 +20°C° 0.1 mm 4 mps 731 mmHg 91%
    12:00 +21°C° 0.5 mm 4 mps 731 mmHg 88%
    13:00 +22°C° 0.5 mm 3 mps 731 mmHg 85%
    14:00 +24°C° 0.5 mm 3 mps 731 mmHg 82%
    15:00 +24°C° 0.5 mm 3 mps 731 mmHg 83%
    16:00 +24°C° 0.5 mm 3 mps 731 mmHg 85%
    17:00 +24°C° 0.5 mm 3 mps 731 mmHg 86%
    18:00 +22°C° 0.4 mm 3 mps 731 mmHg 89%
    19:00 +21°C° 0.4 mm 3 mps 731 mmHg 92%
    20:00 +20°C° 0.4 mm 3 mps 731 mmHg 95%
    21:00 +20°C° 0.3 mm 2 mps 731 mmHg 95%
    22:00 +19°C° 0.3 mm 2 mps 730 mmHg 96%
    23:00 +19°C° 0.3 mm 2 mps 730 mmHg 97%

    20 July, Friday

    Time Temperature Precipitation Wind Pressure Humidity
    00:00 +18°C° 0.1 mm 2 mps 730 mmHg 97%
    01:00 +18°C° 0.1 mm 2 mps 730 mmHg 97%
    02:00 +18°C° 0.1 mm 2 mps 730 mmHg 98%
    03:00 +18°C° 0 mm 2 mps 731 mmHg 98%
    04:00 +18°C° 0 mm 2 mps 731 mmHg 97%
    05:00 +18°C° 0 mm 2 mps 731 mmHg 97%
    06:00 +19°C° 0 mm 3 mps 731 mmHg 94%
    07:00 +21°C° 0 mm 3 mps 731 mmHg 90%
    08:00 +22°C° 0 mm 3 mps 731 mmHg 86%
    09:00 +22°C° 0.9 mm 3 mps 731 mmHg 86%
    10:00 +24°C° 0.9 mm 3 mps 731 mmHg 85%
    11:00 +24°C° 0.9 mm 3 mps 731 mmHg 85%
    12:00 +25°C° 1.3 mm 3 mps 731 mmHg 84%
    13:00 +25°C° 1.3 mm 3 mps 731 mmHg 83%
    14:00 +25°C° 1.3 mm 3 mps 731 mmHg 81%
    15:00 +25°C° 1.7 mm 3 mps 731 mmHg 84%
    16:00 +25°C° 1.7 mm 3 mps 731 mmHg 86%
    17:00 +24°C° 1.7 mm 3 mps 731 mmHg 88%
    18:00 +22°C° 0.2 mm 3 mps 731 mmHg 91%
    19:00 +21°C° 0.2 mm 3 mps 731 mmHg 93%
    20:00 +21°C° 0.2 mm 2 mps 731 mmHg 95%
    21:00 +20°C° 0.3 mm 2 mps 731 mmHg 96%
    22:00 +19°C° 0.3 mm 2 mps 731 mmHg 96%
    23:00 +19°C° 0.3 mm 2 mps 731 mmHg 97%

    21 July, Saturday

    Time Temperature Precipitation Wind Pressure Humidity
    00:00 +19°C° 0 mm 2 mps 731 mmHg 97%
    01:00 +18°C° 0 mm 2 mps 731 mmHg 98%
    02:00 +18°C° 0 mm 2 mps 731 mmHg 98%
    03:00 +19°C° 0 mm 1 mps 731 mmHg 98%
    04:00 +20°C° 0 mm 1 mps 731 mmHg 98%
    05:00 +20°C° 0 mm 1 mps 731 mmHg 97%
    06:00 +21°C° 0 mm 1 mps 731 mmHg 94%
    07:00 +22°C° 0 mm 1 mps 731 mmHg 90%
    08:00 +24°C° 0 mm 1 mps 731 mmHg 86%
    09:00 +25°C° 0.8 mm 1 mps 731 mmHg 84%
    10:00 +25°C° 0.8 mm 1 mps 731 mmHg 81%
    11:00 +26°C° 0.8 mm 1 mps 731 mmHg 79%
    12:00 +27°C° 1.3 mm 1 mps 731 mmHg 78%
    13:00 +27°C° 1.3 mm 1 mps 731 mmHg 77%
    14:00 +27°C° 1.3 mm 1 mps 731 mmHg 76%
    15:00 +27°C° 0.9 mm 1 mps 731 mmHg 79%
    16:00 +27°C° 0.9 mm 1 mps 731 mmHg 81%
    17:00 +26°C° 0.9 mm 1 mps 731 mmHg 84%
    18:00 +25°C° 0.4 mm 1 mps 731 mmHg 87%
    19:00 +24°C° 0.4 mm 1 mps 731 mmHg 90%
    20:00 +23°C° 0.4 mm 1 mps 731 mmHg 93%
    21:00 +22°C° 0.5 mm 1 mps 731 mmHg 94%
    22:00 +21°C° 0.5 mm 1 mps 732 mmHg 95%
    23:00 +21°C° 0.5 mm 1 mps 732 mmHg 96%
    Show more